Terminal Aerodrome Forecast
Issued by NWS Caribou, ME

Home | Current Version | Previous Version | Text Only | Print | Product List | Glossary On
Versions: 1 2 3 4 5 6 7 8 9 10 11 12 13 14 15 16 17 18 19
110
FTUS41 KCAR 082329
TAFCAR
TAF
KCAR 082329Z 0900/0924 03010KT P6SM OVC250
     FM090400 02012G20KT P6SM OVC025
     FM090600 01012G20KT 2SM -SN OVC015
     FM091200 02008KT 1SM -SN OVC015
     FM091800 03010KT 2SM -SN OVC015
     FM092200 03010KT P6SM OVC015=

USA.gov is the U.S. government's official web portal to all federal, state and local government web resources and services.